Overview Statistics Trail Chart Weather Telemetry Raw packets
 

This is the latest recevied weather packets stored in our database for station/object KN6DHD. If no packets are shown the sender has not sent any weather packets the latest 10 day(s).

<< 81 82 83 84 85 86 87 >>
Time Temp. Humidity Pressure Rain* Wind** Luminosity Snow
1777163796 15.56° C 67% 1010.3 hPa 0 mm - 41 W/m² -
1777163491 15.56° C 67% 1010.5 hPa 0 mm - 32 W/m² -
1777163186 15.56° C 68% 1010.4 hPa 0 mm - 35 W/m² -
1777162882 15.56° C 68% 1010.5 hPa 0 mm - 35 W/m² -
1777162578 16.11° C 68% 1010.3 hPa 0 mm - 47 W/m² -
1777162272 16.11° C 68% 1010.2 hPa 0 mm - 56 W/m² -
1777161968 16.11° C 68% 1010.3 hPa 0 mm - 75 W/m² -
1777161664 16.11° C 68% 1010.3 hPa 0 mm - 96 W/m² -
1777161360 16.11° C 67% 1010.3 hPa 0 mm - 112 W/m² -
1777161056 16.67° C 68% 1010.4 hPa 0 mm - 113 W/m² -
1777160752 16.11° C 68% 1010.3 hPa 0 mm - 117 W/m² -
1777160447 16.11° C 67% 1010.3 hPa 0 mm - 153 W/m² -
1777160144 16.11° C 67% 1010.3 hPa 0 mm - 140 W/m² -
1777159839 16.11° C 67% 1010.1 hPa 0 mm - 132 W/m² -
1777159536 16.11° C 67% 1010.1 hPa 0 mm - 115 W/m² -
1777159233 16.11° C 68% 1010.4 hPa 0 mm - 96 W/m² -
1777158929 16.11° C 68% 1010.3 hPa 0 mm - 121 W/m² -
1777158628 16.67° C 68% 1010.5 hPa 0 mm - 128 W/m² -
1777158323 16.67° C 67% 1010.3 hPa 0 mm - 164 W/m² -
1777158020 17.22° C 66% 1010.4 hPa 0 mm - 242 W/m² -
1777157716 17.22° C 66% 1010.3 hPa 0 mm - 271 W/m² -
1777157412 16.67° C 67% 1010.6 hPa 0 mm - 261 W/m² -
1777157108 16.67° C 67% 1010.5 hPa 0 mm - 266 W/m² -
1777156803 16.11° C 68% 1010.8 hPa 0 mm - 288 W/m² -
1777156497 16.67° C 69% 1010.5 hPa 0 mm - 281 W/m² -

* Rain latest hour (hover to see other rain measurements)
** Current wind speed in m/s (hover to see current wind gust speed)